Temp
-7 -6 -6 -6 -6 -6 -6 -6 -6 -6 -6 -5 -5 -5 -5 -4 -4 -4 -4 -4 -4 -4 -4 -5 -5 -5 -5 -5 -5 -5 -5 -5 -5 -5 -5 -5 -6 -6 -6 -5 -6 -6 -6 -6 -6 -6 -6 -7 -7 -7 -7 -7 -7 -7 -8 -8 -8 -8 -8 -8 -8 -8 -8
-6 -6 -6 -6 -6 -6 -6 -6 -6 -6 -6 -6 -6 -5 -5 -4 -4 -4 -5 -5 -5 -5 -5 -5 -5 -5 -5 -5 -5 -5 -5 -5 -5 -5 -5 -6 -6 -6 -6 -6 -6 -6 -6 -6 -6 -6 -6 -7 -7 -7 -7 -7 -7 -7 -8 -8 -8 -8 -8 -8 -8 -8 -8
-6 -6 -6 -6 -6 -6 -6 -6 -5 -6 -6 -6 -6 -5 -5 -5 -5 -5 -5 -5 -5 -5 -5 -5 -5 -5 -5 -5 -5 -5 -5 -5 -5 -5 -6 -6 -6 -6 -6 -6 -6 -6 -6 -6 -6 -6 -6 -7 -7 -7 -7 -7 -7 -8 -8 -8 -8 -8 -8 -8 -8 -8 -8
-6 -6 -6 -6 -6 -6 -6 -6 -5 -5 -5 -5 -5 -6 -6 -5 -5 -5 -5 -5 -5 -5 -5 -5 -5 -5 -5 -5 -5 -6 -6 -6 -6 -6 -6 -6 -6 -6 -6 -6 -6 -6 -6 -6 -6 -6 -6 -7 -7 -7 -7 -7 -8 -8 -8 -8 -8 -8 -8 -8 -8 -8 -8
-6 -6 -6 -6 -6 -6 -6 -6 -6 -5 -5 -5 -5 -5 -5 -6 -5 -5 -5 -5 -5 -5 -5 -5 -5 -5 -5 -5 -5 -6 -6 -6 -6 -6 -6 -6 -6 -6 -6 -6 -6 -6 -6 -6 -6 -6 -7 -7 -7 -7 -7 -7 -8 -8 -8 -8 -8 -8 -8 -8 -8 -8 -8
-6 -6 -6 -6 -6 -6 -6 -6 -6 -6 -6 -6 -6 -6 -6 -6 -5 -5 -5 -5 -5 -5 -5 -5 -5 -5 -6 -6 -6 -6 -6 -6 -6 -6 -6 -7 -7 -7 -7 -7 -7 -6 -6 -6 -6 -7 -7 -7 -7 -7 -7 -7 -8 -8 -8 -8 -8 -8 -8 -8 -8 -8 -8
-6 -6 -6 -6 -6 -6 -7 -7 -7 -6 -6 -6 -6 -6 -6 -6 -5 -5 -5 -5 -6 -6 -5 -5 -5 -6 -6 -6 -6 -6 -6 -6 -6 -6 -7 -7 -7 -7 -7 -7 -7 -7 -7 -7 -7 -7 -7 -7 -7 -7 -7 -8 -8 -8 -8 -8 -8 -8 -8 -8 -8 -8 -8
-6 -6 -6 -6 -6 -6 -6 -6 -6 -7 -6 -6 -6 -6 -6 -6 -5 -5 -5 -6 -6 -6 -6 -6 -6 -6 -6 -6 -6 -6 -6 -6 -6 -6 -6 -7 -7 -7 -7 -7 -7 -7 -7 -7 -7 -7 -7 -7 -8 -8 -8 -8 -8 -8 -8 -8 -8 -8 -8 -8 -8 -8 -8
-6 -6 -6 -6 -6 -6 -6 -6 -6 -6 -6 -6 -6 -6 -6 -5 -5 -6 -6 -6 -6 -6 -6 -6 -6 -6 -6 -6 -6 -6 -6 -6 -6 -6 -6 -7 -7 -7 -7 -7 -8 -8 -7 -7 -7 -8 -8 -8 -8 -8 -8 -8 -8 -8 -8 -8 -8 -8 -8 -8 -8 -8 -8
-6 -6 -6 -6 -6 -6 -6 -6 -6 -6 -6 -6 -6 -6 -6 -5 -5 -5 -5 -6 -5 -5 -6 -6 -6 -6 -6 -6 -6 -6 -6 -6 -6 -6 -7 -7 -7 -7 -7 -7 -7 -8 -8 -8 -8 -8 -8 -8 -8 -8 -8 -8 -8 -8 -8 -8 -8 -8 -8 -8 -8 -8 -8
-6 -6 -6 -6 -6 -6 -6 -6 -6 -6 -7 -7 -6 -6 -6 -6 -5 -5 -5 -5 -5 -6 -6 -6 -6 -6 -6 -6 -6 -6 -6 -6 -6 -6 -7 -7 -7 -7 -7 -7 -7 -7 -8 -8 -8 -8 -8 -8 -8 -8 -8 -8 -8 -8 -8 -8 -8 -8 -8 -8 -8 -8 -8
-5 -6 -6 -6 -6 -6 -6 -6 -6 -6 -6 -7 -7 -6 -6 -6 -5 -5 -5 -5 -5 -6 -6 -6 -6 -6 -6 -6 -6 -6 -6 -6 -6 -7 -7 -7 -7 -7 -7 -7 -7 -7 -8 -8 -8 -8 -8 -8 -8 -8 -8 -8 -9 -8 -8 -8 -8 -8 -8 -8 -8 -8 -8
-5 -5 -5 -6 -6 -6 -6 -6 -6 -6 -6 -7 -6 -6 -6 -6 -6 -5 -5 -5 -6 -6 -6 -6 -6 -6 -6 -6 -6 -6 -6 -6 -7 -7 -7 -7 -7 -7 -7 -7 -7 -7 -8 -8 -8 -8 -8 -8 -8 -8 -8 -8 -8 -8 -8 -8 -8 -8 -8 -8 -8 -8 -8
-4 -5 -5 -5 -5 -6 -6 -6 -6 -6 -6 -7 -6 -6 -6 -6 -6 -6 -6 -6 -6 -6 -6 -6 -6 -6 -6 -6 -6 -6 -6 -7 -7 -7 -7 -7 -7 -7 -7 -7 -7 -8 -8 -8 -8 -8 -8 -8 -8 -8 -8 -8 -8 -8 -8 -8 -8 -8 -8 -8 -8 -8 -8
-4 -4 -5 -5 -5 -5 -6 -6 -6 -6 -6 -7 -6 -6 -6 -6 -6 -6 -6 -6 -6 -6 -6 -6 -6 -6 -6 -7 -7 -7 -7 -7 -7 -7 -7 -7 -7 -7 -7 -7 -7 -8 -8 -8 -8 -8 -8 -8 -8 -8 -7 -7 -7 -7 -8 -7 -7 -8 -8 -8 -8 -8 -8
-4 -4 -4 -5 -5 -5 -5 -6 -6 -6 -6 -7 -7 -6 -6 -6 -6 -6 -6 -6 -6 -6 -6 -6 -6 -6 -6 -7 -7 -7 -7 -7 -7 -7 -7 -7 -7 -7 -7 -7 -7 -8 -8 -8 -8 -8 -8 -8 -8 -7 -7 -7 -7 -7 -7 -7 -7 -8 -8 -8 -8 -8 -8
-4 -4 -4 -4 -5 -5 -5 -6 -6 -6 -7 -7 -7 -7 -6 -6 -6 -6 -6 -6 -6 -6 -6 -6 -6 -6 -7 -7 -7 -7 -7 -7 -7 -7 -7 -7 -7 -7 -7 -7 -8 -8 -8 -8 -8 -8 -8 -8 -8 -8 -8 -7 -7 -7 -7 -7 -7 -8 -8 -8 -8 -8 -8
-4 -4 -4 -4 -4 -5 -5 -6 -6 -6 -7 -7 -7 -7 -7 -6 -6 -6 -6 -6 -6 -6 -6 -6 -6 -7 -7 -7 -7 -7 -7 -7 -7 -7 -7 -7 -7 -7 -8 -8 -8 -8 -8 -8 -8 -8 -8 -8 -8 -8 -8 -8 -8 -8 -8 -8 -8 -8 -8 -8 -8 -8 -8
-4 -3 -3 -4 -4 -4 -5 -6 -6 -7 -7 -7 -7 -7 -7 -7 -6 -6 -7 -6 -6 -6 -6 -6 -7 -7 -7 -7 -7 -7 -7 -7 -7 -7 -7 -7 -8 -8 -8 -8 -8 -8 -8 -8 -8 -8 -8 -8 -8 -8 -8 -8 -8 -8 -8 -8 -8 -8 -8 -8 -8 -8 -8
-4 -4 -3 -3 -4 -4 -5 -5 -6 -7 -7 -7 -7 -7 -7 -7 -7 -7 -7 -7 -7 -6 -7 -7 -7 -7 -7 -7 -7 -7 -8 -7 -7 -7 -7 -7 -7 -7 -8 -8 -8 -8 -8 -8 -8 -8 -8 -8 -8 -8 -8 -8 -8 -8 -8 -8 -8 -8 -8 -8 -8 -8 -8
-4 -4 -4 -3 -3 -4 -4 -5 -5 -6 -7 -7 -7 -7 -7 -7 -7 -7 -7 -7 -7 -7 -7 -7 -7 -7 -7 -7 -7 -7 -8 -8 -7 -7 -7 -7 -7 -7 -7 -8 -8 -8 -8 -8 -8 -8 -8 -8 -8 -8 -8 -8 -8 -8 -8 -8 -8 -8 -8 -8 -8 -8 -8
-4 -4 -4 -4 -4 -4 -4 -5 -5 -6 -6 -7 -7 -7 -7 -7 -7 -7 -7 -7 -7 -7 -6 -7 -7 -7 -7 -7 -7 -7 -8 -8 -8 -7 -7 -7 -7 -7 -7 -7 -8 -8 -8 -8 -8 -8 -8 -8 -8 -8 -8 -8 -8 -8 -8 -8 -8 -8 -8 -9 -9 -9 -8
-4 -4 -4 -4 -4 -4 -4 -4 -5 -5 -6 -6 -7 -7 -7 -7 -7 -7 -7 -7 -7 -7 -6 -6 -6 -6 -7 -7 -7 -7 -8 -8 -8 -7 -8 -8 -7 -7 -7 -7 -7 -8 -8 -8 -8 -8 -8 -8 -8 -8 -8 -8 -8 -8 -8 -8 -8 -8 -8 -9 -9 -9 -9
-5 -4 -4 -4 -4 -4 -4 -4 -5 -5 -6 -6 -6 -6 -7 -7 -7 -7 -7 -6 -6 -6 -6 -6 -6 -6 -6 -6 -7 -7 -7 -7 -8 -8 -8 -8 -8 -8 -7 -7 -7 -8 -8 -8 -8 -8 -8 -8 -8 -8 -8 -8 -8 -8 -8 -8 -8 -8 -8 -9 -9 -9 -9
-5 -5 -4 -4 -4 -4 -4 -4 -4 -5 -6 -6 -6 -6 -6 -7 -7 -7 -7 -7 -7 -6 -6 -7 -7 -7 -7 -7 -7 -7 -7 -7 -8 -8 -8 -8 -8 -8 -8 -8 -8 -8 -8 -7 -7 -7 -8 -8 -8 -8 -8 -8 -8 -8 -8 -8 -8 -8 -8 -8 -9 -9 -9
-5 -5 -5 -4 -4 -5 -5 -4 -4 -5 -5 -6 -7 -6 -6 -7 -7 -7 -7 -7 -7 -7 -7 -7 -7 -7 -7 -7 -7 -7 -7 -7 -7 -7 -7 -8 -8 -8 -8 -8 -7 -7 -7 -7 -7 -7 -7 -8 -8 -8 -8 -8 -8 -8 -8 -8 -8 -8 -8 -8 -9 -9 -9
-5 -5 -5 -5 -5 -5 -5 -5 -5 -4 -5 -6 -7 -7 -7 -7 -7 -7 -7 -7 -7 -7 -7 -7 -7 -7 -7 -7 -7 -7 -7 -7 -7 -7 -7 -7 -7 -8 -8 -8 -7 -7 -8 -8 -8 -8 -8 -8 -8 -8 -8 -8 -8 -8 -8 -8 -8 -8 -8 -8 -8 -9 -9
-5 -5 -5 -5 -5 -5 -5 -5 -5 -5 -5 -5 -6 -7 -7 -7 -7 -7 -7 -7 -7 -7 -7 -7 -7 -7 -7 -7 -7 -7 -7 -7 -7 -7 -7 -7 -7 -8 -8 -8 -8 -8 -8 -8 -8 -8 -8 -8 -8 -8 -8 -8 -8 -8 -8 -8 -8 -8 -8 -9 -9 -9 -9
-5 -5 -5 -5 -5 -5 -5 -5 -5 -5 -5 -5 -6 -6 -7 -7 -7 -7 -7 -7 -7 -7 -7 -7 -7 -7 -7 -7 -7 -7 -7 -7 -7 -7 -7 -8 -8 -8 -8 -8 -8 -8 -8 -8 -8 -8 -8 -8 -8 -8 -8 -8 -8 -8 -8 -8 -8 -8 -8 -9 -9 -9 -9
-6 -5 -6 -6 -6 -6 -5 -5 -5 -6 -6 -6 -6 -6 -6 -7 -7 -7 -7 -7 -7 -7 -7 -7 -7 -7 -7 -7 -7 -7 -7 -8 -8 -8 -8 -8 -8 -8 -8 -8 -8 -8 -8 -8 -8 -8 -8 -8 -8 -8 -8 -8 -8 -8 -8 -8 -8 -8 -8 -9 -9 -9 -9
-6 -6 -6 -6 -6 -6 -6 -6 -6 -6 -6 -6 -6 -6 -6 -7 -7 -7 -7 -7 -7 -7 -8 -8 -8 -8 -8 -8 -8 -7 -8 -8 -8 -8 -8 -8 -8 -8 -8 -8 -8 -8 -8 -8 -8 -8 -8 -8 -8 -8 -8 -8 -8 -8 -8 -9 -8 -8 -8 -9 -9 -9 -9
-7 -7 -7 -7 -6 -6 -6 -6 -6 -6 -6 -6 -7 -7 -7 -7 -7 -7 -7 -7 -7 -7 -8 -8 -8 -8 -8 -8 -8 -8 -8 -8 -8 -8 -8 -8 -8 -8 -8 -8 -8 -8 -8 -8 -8 -8 -8 -8 -8 -8 -9 -9 -9 -8 -8 -9 -9 -8 -8 -9 -9 -9 -9
-7 -7 -7 -7 -7 -7 -6 -6 -6 -6 -6 -6 -6 -7 -7 -7 -7 -7 -7 -7 -7 -7 -7 -8 -8 -8 -8 -8 -8 -8 -8 -8 -8 -8 -8 -8 -8 -8 -8 -8 -8 -8 -8 -8 -8 -8 -8 -8 -8 -9 -9 -9 -9 -9 -9 -9 -9 -9 -9 -9 -9 -9 -9
-7 -8 -8 -8 -8 -7 -7 -7 -6 -6 -6 -6 -6 -7 -7 -7 -7 -7 -7 -7 -7 -7 -7 -7 -7 -7 -7 -7 -7 -7 -7 -7 -8 -8 -8 -8 -8 -8 -8 -8 -8 -8 -8 -8 -8 -8 -8 -8 -8 -9 -9 -9 -9 -9 -9 -9 -9 -9 -9 -9 -9 -9 -9
-7 -8 -8 -8 -8 -8 -8 -7 -7 -7 -6 -6 -6 -7 -7 -7 -7 -7 -7 -7 -7 -7 -7 -7 -7 -7 -7 -7 -7 -8 -8 -8 -8 -8 -8 -8 -8 -8 -8 -8 -8 -8 -8 -8 -8 -8 -8 -8 -8 -8 -8 -9 -9 -9 -9 -9 -9 -8 -9 -9 -9 -9 -9
-8 -8 -8 -8 -8 -8 -8 -8 -7 -7 -7 -7 -7 -7 -7 -7 -7 -7 -7 -7 -7 -7 -7 -7 -8 -8 -8 -8 -8 -8 -8 -8 -8 -8 -8 -8 -8 -8 -8 -7 -7 -7 -7 -7 -7 -7 -7 -8 -8 -8 -8 -8 -8 -9 -9 -9 -9 -9 -9 -9 -9 -9 -9
-8 -8 -9 -9 -8 -8 -8 -8 -8 -8 -7 -7 -7 -7 -7 -7 -7 -7 -7 -7 -7 -7 -7 -7 -7 -8 -8 -8 -8 -8 -8 -8 -8 -8 -7 -7 -7 -7 -7 -7 -7 -7 -7 -7 -7 -7 -7 -7 -7 -7 -7 -8 -8 -8 -8 -9 -9 -9 -8 -8 -9 -9 -9
-9 -9 -9 -9 -9 -9 -9 -8 -8 -8 -8 -8 -7 -7 -7 -7 -7 -7 -7 -7 -7 -7 -7 -7 -7 -7 -7 -7 -7 -7 -7 -7 -7 -7 -7 -7 -7 -7 -7 -7 -7 -7 -7 -7 -7 -7 -7 -7 -7 -7 -7 -7 -7 -8 -8 -8 -8 -9 -9 -9 -9 -9 -9
Height
5879 5880 5881 5882 5882 5883 5884 5886 5888 5890 5891 5893 5895 5896 5897 5899 5900 5901 5903 5904 5906 5907 5908 5909 5910 5911 5912 5913 5914 5915 5916 5917 5918 5920 5921 5922 5923 5924 5924 5925 5926 5927 5927 5928 5928 5929 5930 5930 5931 5931 5932 5933 5933 5933 5933 5933 5933 5933 5932 5931 5930 5929 5928
5878 5878 5880 5881 5882 5883 5884 5884 5885 5887 5889 5891 5893 5894 5896 5897 5898 5900 5901 5903 5904 5905 5907 5908 5909 5910 5911 5911 5912 5913 5914 5915 5916 5918 5919 5920 5921 5922 5922 5923 5924 5925 5925 5926 5927 5928 5928 5929 5929 5930 5931 5931 5932 5932 5932 5932 5932 5932 5931 5930 5930 5929 5927
5876 5878 5879 5880 5881 5883 5883 5883 5884 5885 5887 5889 5891 5892 5894 5896 5897 5898 5899 5901 5902 5903 5905 5906 5907 5908 5909 5910 5911 5912 5912 5913 5915 5916 5916 5917 5918 5919 5920 5921 5922 5923 5923 5924 5925 5926 5926 5927 5927 5928 5929 5930 5930 5930 5930 5930 5930 5930 5930 5929 5929 5928 5927
5875 5877 5878 5879 5881 5882 5882 5883 5883 5884 5885 5886 5888 5890 5892 5894 5895 5896 5897 5898 5900 5901 5902 5904 5905 5906 5907 5908 5909 5910 5911 5912 5913 5913 5914 5915 5915 5916 5917 5919 5920 5920 5921 5922 5923 5924 5924 5925 5925 5926 5927 5928 5928 5928 5928 5928 5929 5928 5928 5928 5927 5927 5926
5874 5875 5877 5878 5880 5881 5882 5883 5883 5884 5885 5885 5887 5888 5890 5891 5892 5893 5895 5896 5897 5898 5900 5901 5902 5904 5905 5906 5907 5908 5909 5910 5910 5911 5912 5912 5913 5914 5915 5916 5917 5918 5919 5919 5921 5922 5922 5923 5923 5924 5925 5925 5926 5927 5927 5927 5927 5927 5927 5926 5926 5925 5924
5872 5874 5875 5877 5879 5880 5881 5882 5883 5883 5884 5885 5885 5886 5887 5888 5889 5891 5892 5893 5895 5896 5897 5899 5900 5902 5903 5904 5905 5906 5907 5907 5908 5909 5910 5910 5911 5912 5913 5913 5914 5915 5916 5917 5918 5919 5920 5921 5921 5922 5923 5923 5924 5925 5925 5925 5925 5925 5925 5925 5924 5924 5923
5870 5871 5873 5875 5877 5878 5879 5880 5881 5882 5882 5883 5883 5883 5884 5885 5886 5888 5889 5890 5892 5893 5895 5897 5898 5900 5901 5902 5902 5903 5904 5905 5906 5906 5907 5908 5908 5909 5910 5911 5912 5913 5913 5915 5916 5917 5918 5918 5919 5920 5921 5921 5922 5922 5923 5923 5923 5923 5923 5923 5923 5923 5922
5866 5869 5871 5873 5874 5875 5876 5878 5878 5879 5879 5880 5880 5880 5881 5882 5883 5884 5886 5888 5889 5891 5892 5894 5896 5897 5898 5899 5900 5901 5902 5902 5903 5904 5904 5905 5906 5907 5907 5908 5909 5910 5911 5912 5913 5914 5915 5916 5917 5918 5919 5919 5920 5920 5921 5921 5921 5921 5921 5921 5921 5921 5921
5862 5865 5867 5868 5870 5872 5874 5875 5875 5876 5876 5876 5877 5877 5878 5879 5881 5882 5883 5885 5886 5888 5890 5892 5893 5895 5895 5896 5898 5899 5899 5900 5901 5902 5902 5903 5903 5904 5904 5905 5906 5906 5908 5909 5910 5912 5913 5914 5914 5915 5916 5917 5918 5918 5918 5919 5919 5919 5919 5919 5919 5919 5919
5858 5861 5863 5864 5866 5868 5870 5872 5872 5873 5874 5874 5875 5875 5876 5877 5878 5879 5881 5882 5884 5886 5888 5889 5891 5892 5893 5894 5895 5896 5897 5898 5899 5899 5900 5900 5901 5901 5901 5902 5902 5903 5905 5906 5907 5909 5910 5911 5912 5913 5914 5915 5915 5916 5916 5916 5916 5917 5917 5917 5917 5917 5917
5855 5857 5860 5861 5863 5865 5866 5868 5870 5871 5872 5872 5873 5874 5874 5875 5876 5877 5878 5879 5881 5884 5885 5886 5888 5889 5891 5892 5893 5894 5895 5896 5897 5897 5898 5898 5898 5898 5899 5899 5900 5901 5902 5903 5904 5906 5907 5908 5908 5909 5911 5912 5913 5913 5913 5913 5914 5914 5914 5915 5915 5915 5915
5851 5854 5856 5857 5859 5860 5862 5865 5867 5868 5870 5870 5871 5872 5873 5873 5874 5875 5876 5877 5879 5880 5881 5883 5885 5887 5888 5889 5891 5892 5893 5894 5895 5895 5896 5896 5896 5897 5897 5897 5898 5898 5899 5900 5901 5903 5903 5904 5905 5906 5907 5909 5909 5910 5910 5910 5911 5911 5912 5912 5912 5913 5913
5847 5849 5851 5853 5855 5857 5859 5862 5864 5866 5867 5868 5868 5870 5871 5871 5872 5873 5874 5875 5877 5877 5878 5880 5881 5884 5885 5887 5888 5890 5891 5892 5893 5893 5894 5894 5895 5895 5895 5895 5896 5896 5897 5898 5899 5900 5901 5901 5902 5903 5904 5905 5906 5906 5907 5907 5908 5908 5909 5909 5910 5910 5910
5843 5845 5847 5849 5851 5853 5856 5859 5861 5863 5865 5865 5866 5867 5869 5869 5870 5871 5871 5873 5874 5875 5876 5877 5879 5881 5883 5884 5886 5888 5889 5890 5890 5891 5891 5892 5893 5893 5894 5894 5894 5895 5895 5896 5897 5897 5898 5899 5899 5900 5901 5902 5902 5903 5903 5904 5905 5905 5906 5906 5907 5908 5908
5839 5840 5843 5845 5847 5849 5852 5855 5858 5860 5862 5863 5863 5864 5866 5867 5868 5869 5869 5871 5871 5873 5874 5875 5876 5878 5880 5882 5884 5886 5886 5887 5887 5888 5889 5890 5891 5891 5892 5892 5892 5893 5893 5894 5894 5895 5895 5896 5897 5898 5898 5899 5899 5899 5900 5901 5902 5903 5903 5903 5904 5904 5905
5835 5837 5839 5842 5844 5846 5848 5851 5854 5856 5858 5859 5861 5862 5863 5865 5866 5867 5868 5869 5870 5871 5872 5873 5874 5876 5878 5880 5882 5883 5883 5884 5885 5886 5886 5887 5888 5889 5889 5890 5890 5891 5892 5892 5892 5893 5893 5894 5894 5895 5895 5896 5896 5896 5897 5898 5899 5900 5900 5900 5900 5901 5901
5832 5834 5836 5838 5841 5843 5845 5847 5850 5852 5854 5856 5858 5859 5861 5862 5863 5864 5865 5866 5867 5868 5870 5870 5872 5874 5875 5877 5879 5879 5880 5881 5882 5883 5884 5885 5886 5886 5887 5887 5888 5888 5889 5890 5890 5890 5891 5891 5892 5892 5892 5893 5893 5893 5894 5895 5896 5896 5897 5897 5897 5897 5898
5829 5831 5833 5834 5836 5839 5841 5844 5846 5849 5851 5853 5855 5857 5858 5859 5861 5862 5863 5864 5865 5866 5867 5868 5869 5871 5873 5874 5875 5876 5877 5878 5879 5880 5881 5882 5883 5884 5884 5884 5885 5886 5887 5887 5888 5888 5888 5889 5889 5889 5889 5889 5890 5890 5891 5892 5893 5893 5893 5893 5893 5893 5894
5827 5828 5830 5831 5833 5835 5838 5840 5843 5845 5848 5850 5852 5854 5855 5856 5858 5859 5860 5862 5862 5863 5863 5865 5866 5868 5870 5871 5872 5873 5874 5875 5876 5877 5878 5880 5880 5881 5881 5881 5882 5883 5884 5885 5885 5885 5886 5886 5886 5886 5886 5886 5886 5887 5887 5888 5889 5889 5890 5890 5890 5890 5890
5825 5826 5827 5828 5829 5832 5834 5836 5839 5841 5844 5846 5849 5851 5852 5853 5855 5856 5857 5858 5858 5859 5860 5862 5863 5865 5867 5868 5869 5871 5871 5872 5873 5874 5875 5876 5877 5877 5878 5878 5880 5880 5881 5881 5882 5882 5883 5883 5883 5883 5884 5884 5884 5883 5883 5884 5885 5885 5886 5886 5886 5886 5886
5821 5823 5824 5825 5827 5828 5830 5833 5835 5838 5840 5843 5845 5847 5848 5850 5852 5853 5853 5854 5855 5857 5858 5859 5860 5862 5863 5865 5866 5867 5868 5869 5870 5871 5872 5873 5873 5874 5874 5875 5876 5877 5878 5878 5878 5879 5880 5880 5880 5880 5881 5881 5881 5880 5880 5880 5881 5881 5881 5881 5881 5881 5881
5818 5820 5821 5823 5825 5826 5828 5830 5832 5834 5836 5838 5841 5843 5846 5848 5849 5849 5850 5852 5853 5854 5855 5856 5857 5858 5860 5861 5862 5864 5865 5866 5866 5867 5868 5869 5869 5870 5870 5871 5872 5873 5874 5875 5875 5875 5876 5876 5877 5877 5877 5877 5877 5877 5877 5877 5876 5876 5875 5876 5875 5875 5875
5813 5816 5818 5821 5823 5824 5825 5826 5828 5830 5832 5834 5837 5839 5842 5844 5845 5846 5847 5849 5850 5851 5852 5853 5855 5856 5857 5858 5859 5861 5861 5861 5861 5863 5864 5864 5865 5866 5866 5867 5868 5869 5870 5871 5871 5871 5872 5872 5873 5873 5873 5873 5873 5873 5874 5873 5872 5871 5871 5871 5870 5869 5870
5809 5812 5815 5817 5820 5822 5822 5823 5825 5827 5829 5831 5833 5835 5838 5840 5842 5843 5844 5846 5847 5848 5850 5851 5852 5853 5855 5856 5857 5856 5855 5856 5857 5859 5860 5860 5861 5862 5862 5863 5863 5864 5864 5865 5866 5867 5867 5867 5867 5868 5868 5869 5869 5870 5870 5869 5868 5868 5867 5867 5866 5865 5865
5806 5808 5810 5813 5816 5818 5820 5820 5822 5823 5825 5827 5829 5831 5834 5836 5838 5839 5840 5842 5844 5845 5847 5849 5850 5850 5851 5852 5852 5850 5850 5852 5853 5854 5855 5856 5857 5858 5858 5859 5859 5859 5859 5860 5861 5862 5863 5862 5862 5863 5863 5864 5864 5865 5865 5865 5864 5864 5864 5864 5862 5861 5861
5802 5804 5806 5808 5811 5814 5816 5817 5818 5820 5821 5823 5825 5827 5830 5832 5834 5835 5837 5838 5840 5842 5844 5845 5845 5845 5846 5846 5846 5847 5848 5849 5849 5850 5852 5852 5852 5853 5854 5854 5855 5855 5855 5856 5857 5857 5857 5857 5858 5858 5858 5859 5859 5859 5859 5859 5859 5860 5860 5860 5858 5857 5857
5798 5800 5802 5804 5806 5809 5811 5813 5814 5816 5818 5819 5821 5823 5825 5828 5830 5832 5833 5834 5836 5837 5839 5839 5840 5841 5842 5842 5843 5844 5844 5845 5846 5847 5848 5848 5848 5848 5849 5850 5850 5850 5850 5851 5851 5851 5851 5851 5852 5852 5853 5853 5853 5852 5853 5853 5853 5854 5855 5855 5854 5853 5853
5794 5796 5798 5799 5801 5803 5806 5808 5810 5812 5814 5815 5817 5819 5821 5823 5826 5828 5829 5830 5832 5833 5834 5835 5836 5837 5838 5838 5839 5840 5840 5841 5842 5843 5844 5844 5844 5844 5844 5845 5845 5845 5845 5845 5845 5845 5845 5845 5845 5846 5846 5846 5846 5846 5847 5847 5847 5847 5848 5850 5849 5848 5848
5790 5792 5794 5795 5797 5799 5801 5803 5805 5807 5810 5812 5813 5815 5817 5819 5821 5823 5825 5826 5827 5828 5829 5831 5831 5832 5833 5834 5835 5836 5836 5836 5837 5838 5838 5839 5839 5839 5840 5839 5839 5839 5839 5840 5840 5840 5840 5839 5839 5839 5839 5839 5840 5840 5841 5841 5841 5840 5842 5843 5843 5842 5842
5785 5787 5789 5791 5793 5794 5796 5798 5800 5802 5804 5807 5809 5810 5812 5814 5816 5817 5819 5820 5822 5823 5824 5825 5825 5827 5828 5829 5830 5830 5831 5831 5831 5832 5833 5834 5834 5834 5835 5834 5833 5833 5833 5833 5833 5833 5833 5833 5833 5832 5832 5832 5832 5834 5835 5835 5835 5835 5836 5836 5836 5835 5835
5779 5782 5784 5786 5788 5790 5791 5793 5795 5797 5799 5801 5803 5805 5807 5808 5810 5811 5813 5814 5815 5816 5818 5819 5820 5821 5822 5823 5824 5825 5825 5826 5827 5827 5827 5828 5828 5828 5828 5828 5828 5827 5826 5826 5826 5825 5825 5825 5825 5824 5824 5824 5825 5827 5829 5829 5828 5828 5830 5830 5829 5827 5827
5774 5776 5778 5781 5783 5785 5786 5788 5790 5792 5794 5796 5798 5800 5802 5803 5805 5806 5807 5808 5810 5811 5812 5813 5814 5816 5817 5817 5818 5819 5819 5820 5821 5821 5821 5821 5821 5821 5821 5821 5821 5821 5820 5819 5818 5818 5818 5818 5817 5817 5817 5817 5818 5819 5820 5821 5820 5821 5822 5823 5821 5820 5818
5769 5771 5773 5776 5778 5780 5782 5784 5785 5787 5789 5791 5793 5795 5796 5798 5799 5801 5802 5804 5805 5806 5807 5808 5809 5810 5811 5812 5812 5813 5813 5814 5814 5814 5815 5815 5814 5814 5814 5814 5814 5813 5813 5812 5811 5811 5811 5811 5810 5810 5810 5810 5811 5810 5810 5811 5812 5814 5815 5815 5814 5814 5812
5764 5765 5768 5770 5772 5775 5777 5779 5781 5783 5784 5786 5788 5790 5791 5793 5794 5796 5797 5799 5800 5801 5802 5803 5803 5804 5805 5806 5806 5807 5807 5807 5807 5808 5808 5808 5808 5807 5807 5807 5806 5805 5805 5805 5804 5803 5803 5802 5802 5802 5803 5803 5802 5800 5800 5801 5803 5805 5807 5808 5808 5807 5805
5758 5760 5763 5765 5767 5770 5772 5774 5777 5779 5780 5782 5784 5785 5786 5788 5789 5790 5791 5793 5794 5795 5796 5796 5797 5797 5798 5799 5799 5800 5800 5801 5801 5801 5801 5801 5801 5800 5800 5799 5799 5798 5797 5797 5797 5796 5795 5793 5793 5794 5795 5794 5792 5791 5790 5790 5794 5797 5799 5799 5799 5797 5793
5753 5755 5757 5760 5762 5764 5767 5769 5772 5774 5776 5778 5779 5780 5781 5782 5783 5785 5786 5787 5788 5789 5789 5790 5790 5791 5792 5792 5793 5793 5794 5794 5794 5794 5794 5794 5794 5793 5793 5792 5791 5790 5789 5789 5789 5787 5786 5784 5783 5784 5785 5783 5782 5782 5782 5783 5786 5787 5786 5786 5788 5786 5783
5747 5750 5752 5754 5757 5759 5761 5764 5767 5769 5771 5772 5773 5775 5776 5777 5778 5779 5780 5781 5782 5783 5784 5784 5785 5785 5786 5786 5786 5787 5787 5787 5787 5787 5787 5786 5786 5786 5785 5785 5784 5783 5781 5781 5780 5779 5777 5774 5774 5774 5774 5771 5771 5773 5775 5776 5775 5774 5773 5775 5777 5776 5773
5741 5743 5746 5748 5751 5753 5756 5759 5761 5763 5765 5766 5768 5769 5770 5771 5772 5773 5774 5775 5776 5776 5777 5778 5779 5779 5779 5780 5780 5780 5780 5779 5779 5779 5778 5778 5777 5777 5776 5776 5776 5775 5773 5771 5770 5769 5767 5765 5763 5763 5763 5761 5761 5763 5765 5765 5764 5763 5764 5766 5767 5765 5762
Wind_Speed
26 24 23 22 21 21 20 19 17 16 16 16 16 18 19 18 17 15 15 15 15 16 16 17 16 16 15 15 16 17 17 17 16 15 16 16 17 18 18 16 16 16 16 16 16 14 13 11 10 9 9 10 11 12 13 12 11 11 9 7 5 4 4
28 26 24 22 21 21 21 21 21 19 18 17 17 18 18 18 17 16 15 15 15 16 16 16 16 16 17 17 18 18 18 17 17 16 16 16 17 18 19 18 17 17 17 17 16 15 13 12 12 11 10 11 11 12 14 13 12 12 10 8 6 5 4
28 26 24 23 22 21 21 21 21 21 20 19 19 19 18 17 17 17 17 17 17 17 17 16 16 17 18 19 19 19 19 19 18 17 16 16 17 18 19 19 18 18 18 17 16 15 14 13 13 13 12 11 12 12 14 14 13 13 12 10 8 6 5
28 26 25 23 21 19 19 20 21 22 22 21 21 21 19 19 19 18 18 18 18 19 18 17 18 19 19 20 20 21 21 21 20 19 19 18 19 19 19 19 19 19 19 19 18 16 15 15 14 14 13 12 12 13 14 15 15 14 13 11 9 7 6
29 27 24 21 18 17 17 17 18 19 21 21 21 22 21 21 22 21 21 20 20 20 19 19 19 19 19 19 20 21 22 23 23 22 21 21 21 20 19 19 20 20 20 20 19 18 17 16 16 15 15 14 13 14 14 15 16 16 14 12 10 8 7
30 27 25 21 19 18 16 15 15 16 18 19 20 21 22 23 23 22 22 22 21 21 20 20 19 18 18 18 18 20 21 21 22 22 23 23 23 22 21 21 21 21 22 22 21 20 19 18 17 16 16 16 15 14 15 15 17 17 15 13 11 9 8
31 29 26 24 23 22 19 17 15 16 18 19 20 21 23 25 26 25 25 24 23 22 21 20 18 17 17 18 18 19 19 19 19 20 21 22 23 23 23 23 23 23 23 23 22 21 20 19 19 18 18 17 17 16 16 16 17 18 16 15 12 10 9
31 30 27 25 26 26 24 21 19 19 21 22 23 23 24 26 27 28 27 25 24 23 21 20 18 17 17 18 18 18 18 18 19 19 19 20 22 23 24 25 25 25 25 24 23 23 22 21 20 19 19 19 18 18 17 17 18 19 17 15 13 11 9
31 31 29 29 30 30 28 25 24 23 24 25 26 26 26 27 28 29 28 26 25 24 22 20 19 18 19 19 18 17 17 17 17 17 17 17 19 21 23 25 27 27 26 25 25 24 23 23 22 21 21 20 20 20 19 18 18 19 18 17 15 12 10
31 31 30 29 30 31 30 28 26 24 24 26 27 28 28 28 28 29 29 28 26 24 22 21 20 20 20 19 18 17 16 15 15 15 15 15 16 18 21 23 26 27 27 26 26 25 24 24 24 23 22 21 21 21 20 19 19 20 20 18 16 14 11
31 31 29 28 29 30 31 31 28 25 24 25 27 26 26 27 28 28 29 28 25 23 23 22 21 20 20 19 18 17 15 14 13 12 12 13 14 16 18 20 22 24 25 26 26 25 25 25 25 24 23 22 22 22 22 22 21 22 21 19 17 15 13
32 32 31 30 31 33 34 32 29 26 23 24 27 24 22 23 25 26 27 26 24 23 23 23 21 20 20 20 18 16 15 13 12 11 11 10 11 12 14 15 17 18 20 21 22 22 23 23 24 23 23 23 23 24 24 24 23 23 22 21 18 16 14
34 35 35 34 34 35 36 34 32 29 25 24 27 25 20 20 22 24 25 24 23 23 24 24 22 21 20 20 18 16 15 13 12 11 11 10 9 8 8 9 10 12 13 14 14 14 15 17 19 20 21 23 24 25 25 25 24 23 23 22 20 18 16
33 36 37 36 36 35 36 36 34 32 27 25 28 28 24 20 20 21 23 22 22 24 24 24 22 21 20 20 18 16 15 14 14 13 12 11 9 7 5 5 6 7 8 9 11 11 12 13 14 16 17 20 22 24 26 25 24 24 24 23 22 20 18
33 35 36 37 37 37 36 35 34 33 30 26 27 29 27 24 21 20 21 21 22 24 24 23 23 21 21 20 17 15 15 16 16 14 13 12 10 8 7 6 6 7 7 8 9 10 11 12 13 13 13 16 20 23 25 24 23 23 24 24 24 22 21
30 32 34 35 36 36 36 35 34 33 32 29 27 27 27 25 23 22 21 21 23 23 23 23 22 20 19 17 14 14 16 18 17 16 15 13 12 12 10 9 9 9 8 8 9 9 10 11 12 13 13 14 16 19 21 21 22 24 25 25 26 25 23
26 28 30 31 33 34 34 34 34 34 33 31 28 27 27 25 23 24 23 23 23 23 23 23 21 19 17 15 14 16 18 19 18 17 16 15 15 15 13 13 13 12 11 10 10 11 10 10 9 11 13 15 16 17 18 18 20 24 26 27 28 28 26
25 26 26 28 30 31 32 32 33 33 33 32 30 29 28 26 23 23 24 23 22 22 23 23 21 19 17 16 17 19 19 19 19 18 17 17 17 18 17 17 17 16 14 13 14 14 12 10 10 11 12 14 16 16 17 18 20 23 26 28 30 30 28
27 26 26 26 27 29 30 31 32 32 31 31 31 30 29 26 23 21 22 22 21 21 21 20 19 18 18 18 19 20 19 20 20 19 19 19 20 21 22 21 20 20 19 18 18 17 14 13 14 14 13 13 14 16 18 19 21 23 26 29 31 31 30
29 28 28 27 27 28 29 30 32 32 31 30 31 30 29 27 23 22 22 22 22 22 22 21 21 21 21 21 22 22 22 22 22 21 21 21 23 24 25 24 23 23 23 23 22 20 18 18 18 17 16 15 15 16 18 19 22 24 26 29 31 33 33
32 31 30 29 28 27 28 29 31 32 32 31 31 31 30 27 25 26 27 26 24 24 24 24 25 25 25 25 25 25 25 24 23 24 23 23 24 25 26 27 26 26 26 27 26 25 23 23 22 21 20 18 17 18 17 18 21 24 26 29 32 34 35
34 33 32 31 29 28 28 29 31 31 33 34 34 33 31 29 28 30 31 28 27 27 26 26 27 28 28 29 29 28 27 27 28 27 26 25 26 26 27 28 28 28 28 29 30 30 28 27 26 26 25 23 22 21 19 19 21 24 27 30 33 36 37
36 35 33 32 31 29 29 30 31 31 32 33 34 33 33 31 31 33 33 31 30 30 29 29 29 29 28 28 28 30 32 33 33 30 28 28 29 28 28 29 29 30 30 30 32 33 33 33 31 31 30 29 28 26 23 23 24 26 29 32 35 37 38
37 36 35 34 32 31 31 31 31 31 32 32 31 31 32 32 33 35 36 34 31 30 30 30 29 28 26 24 26 32 37 39 38 33 30 30 31 30 30 30 30 32 33 34 35 35 35 36 35 34 35 35 34 32 30 28 27 28 30 33 36 38 38
38 37 36 35 33 32 32 32 32 32 33 34 32 30 30 31 32 35 37 35 34 31 29 28 28 29 28 26 27 33 37 39 40 37 33 33 33 31 31 33 33 35 36 36 36 36 37 38 39 39 39 39 38 38 36 34 33 32 31 34 37 39 40
37 37 36 36 34 34 34 34 34 34 34 35 35 33 32 31 31 33 36 36 35 33 31 32 33 33 31 29 30 32 34 37 39 38 36 35 35 34 35 35 35 37 37 37 37 37 39 39 39 40 40 40 41 41 40 38 37 36 34 35 38 41 42
36 36 36 36 36 35 36 36 36 35 36 37 37 37 36 34 33 33 35 36 35 34 34 35 36 35 33 33 33 32 34 36 36 36 35 34 34 34 35 34 34 36 37 37 38 39 40 41 40 39 37 36 36 37 37 39 41 41 40 40 41 42 43
38 37 37 37 37 37 37 37 37 37 37 38 39 39 39 38 38 37 37 37 37 37 37 38 39 39 38 37 34 32 33 33 32 31 32 32 32 33 33 34 35 37 37 38 39 40 41 41 41 40 37 34 33 34 35 37 41 43 44 43 44 44 44
39 38 38 38 39 39 39 38 38 38 39 39 40 40 40 41 42 41 41 41 41 41 40 40 41 41 39 36 34 32 32 32 32 32 32 33 34 35 36 37 39 41 41 41 42 42 43 42 42 43 42 39 37 36 37 39 43 46 47 46 46 48 48
41 40 39 38 39 40 40 40 40 40 41 41 41 41 42 42 43 44 43 43 42 41 40 39 39 38 37 35 35 34 34 34 35 36 36 37 38 38 39 41 43 44 45 46 46 46 46 45 45 45 46 45 43 40 38 39 44 48 50 50 50 50 51
42 41 40 38 38 38 40 41 41 41 42 42 42 42 43 43 44 44 43 42 41 39 39 39 39 39 39 39 38 38 37 37 37 39 40 41 42 42 43 44 44 47 49 49 50 50 49 48 48 48 49 50 49 46 42 41 44 47 48 50 53 54 54
42 41 40 39 38 37 39 39 39 40 42 44 44 44 44 44 45 45 44 43 43 42 42 42 42 42 42 42 42 42 41 41 41 42 43 44 46 47 47 47 47 49 50 51 52 51 51 51 52 52 52 52 52 50 47 45 46 47 45 47 50 55 58
42 41 40 39 38 38 39 39 39 39 40 42 45 46 47 47 46 46 46 46 45 45 45 45 46 46 46 46 47 47 47 47 46 46 46 47 48 49 50 50 50 50 51 52 53 53 52 53 54 54 54 53 52 53 53 52 50 49 48 49 51 54 57
43 42 42 41 41 40 40 41 40 39 38 39 42 44 47 49 49 49 49 49 48 48 49 49 50 51 51 50 50 49 48 47 47 47 47 48 48 49 50 51 52 52 53 54 54 55 55 56 57 57 56 55 54 56 58 58 54 50 49 50 52 55 58
45 44 44 44 44 43 42 42 42 41 40 40 41 42 43 45 47 49 50 51 51 51 51 52 51 51 50 49 47 46 45 45 45 46 47 48 49 50 52 53 54 56 56 56 57 58 58 60 60 59 57 58 58 58 60 61 58 54 53 53 56 60 63
46 46 46 46 46 45 44 43 43 43 43 43 43 42 42 42 43 45 46 47 48 49 50 50 49 48 46 46 45 45 45 46 47 48 49 51 52 53 54 56 57 58 59 59 60 60 61 62 63 62 61 62 62 61 61 61 60 59 60 60 61 62 63
48 48 48 48 47 46 45 44 43 42 43 43 43 43 44 44 43 43 44 44 45 46 47 48 48 47 47 47 47 47 48 49 50 51 52 53 54 54 55 55 56 58 59 59 60 60 62 64 65 64 65 66 66 64 63 64 64 66 67 65 64 65 66
49 49 49 49 48 47 45 44 43 43 42 43 43 43 44 45 45 45 45 46 46 47 48 48 48 49 49 49 50 51 51 51 52 52 52 53 53 54 54 54 55 56 58 59 60 61 63 64 66 66 67 68 68 67 65 66 68 69 69 67 66 69 72
Wind_Direction
188 188 188 188 189 186 180 181 189 199 205 203 201 203 201 198 200 202 205 209 209 207 204 203 206 208 211 215 221 226 228 231 234 237 240 238 235 236 238 238 233 234 237 238 239 243 245 244 244 254 273 287 284 269 264 264 261 265 266 265 284 318 338
194 193 191 193 195 193 188 186 189 196 204 204 205 209 207 202 200 200 204 208 212 214 211 210 212 213 216 219 223 227 230 232 233 234 237 240 240 238 238 239 236 235 238 241 244 246 246 242 243 251 263 281 287 275 267 265 262 264 264 264 278 303 323
199 197 196 198 200 199 196 194 193 195 202 206 207 212 214 213 208 204 206 208 213 218 219 219 221 221 223 225 228 231 234 237 237 236 236 238 240 239 239 240 238 237 238 242 244 245 244 243 245 251 257 271 284 279 271 267 263 264 264 264 275 293 309
203 200 200 205 207 206 205 204 202 200 202 205 208 211 215 219 219 214 212 212 216 221 223 224 226 227 228 229 231 233 235 238 239 239 239 239 240 241 241 241 240 239 239 241 243 245 246 246 247 250 252 260 274 279 275 268 264 266 265 264 273 287 300
208 204 204 207 207 210 215 218 218 214 211 210 211 213 215 219 222 220 218 217 220 224 226 228 230 232 234 235 236 238 239 240 241 241 241 241 242 244 244 244 242 241 240 241 244 246 247 248 249 250 252 256 265 274 276 270 265 265 265 264 272 284 295
212 207 205 204 202 206 215 227 235 235 230 224 220 219 219 221 223 223 223 223 223 226 230 232 234 236 239 241 243 243 244 245 246 246 245 244 244 245 245 245 244 243 243 243 245 247 248 250 251 251 251 255 261 268 273 269 264 264 264 263 268 279 291
212 209 207 206 204 207 212 221 233 241 241 237 232 227 222 222 224 224 225 225 226 229 233 236 237 238 239 241 242 243 244 245 245 245 245 244 244 244 245 246 247 246 245 246 247 249 250 251 252 252 251 253 258 264 268 266 262 262 263 261 264 274 286
208 208 209 210 211 212 214 217 223 231 236 237 237 235 229 225 225 226 227 227 228 231 234 237 239 238 238 239 240 240 240 242 244 245 246 246 244 244 244 245 247 247 247 248 249 250 252 253 254 254 252 252 256 261 265 264 260 260 261 259 261 268 279
204 205 206 210 213 216 218 217 218 224 229 231 233 235 234 229 226 228 229 230 231 232 235 238 238 236 234 235 237 239 242 245 248 251 251 251 249 246 245 245 246 247 248 249 249 250 253 255 256 255 253 252 254 259 262 261 257 257 259 257 258 264 272
204 204 206 210 214 217 218 214 214 221 229 234 236 237 237 234 231 229 228 230 232 233 236 238 238 236 233 234 236 239 244 250 253 255 254 253 250 247 246 245 245 247 248 249 250 252 254 255 256 256 254 251 253 256 259 259 255 253 255 253 253 257 263
207 206 206 210 211 212 213 209 210 219 230 237 239 239 240 239 235 231 229 230 231 233 236 238 238 237 235 235 237 240 247 253 255 256 256 254 252 250 248 247 247 248 249 250 252 253 254 255 256 256 254 250 249 251 253 255 252 251 253 252 250 252 257
207 207 207 208 206 206 207 206 207 214 227 240 242 238 238 240 236 231 228 227 228 230 232 235 236 235 234 235 238 242 249 253 252 253 256 258 258 256 254 252 252 252 253 254 256 257 258 257 256 255 252 247 245 246 249 251 251 250 252 251 248 248 252
208 209 209 210 208 207 208 209 209 212 221 238 243 236 235 238 234 228 225 225 226 228 230 232 233 230 230 233 237 243 249 252 251 252 256 261 264 264 265 265 263 261 261 262 265 267 267 265 262 258 254 248 245 245 246 248 249 250 251 252 249 247 249
213 213 213 213 212 211 212 214 214 216 221 233 241 238 236 237 233 228 225 223 225 227 228 229 228 225 226 231 236 243 249 250 249 251 256 263 268 274 284 294 294 288 282 280 279 277 274 272 270 266 261 256 251 247 247 249 250 249 251 252 250 247 247
216 218 218 217 216 214 214 214 215 219 222 230 239 241 240 238 236 234 231 228 227 228 228 226 224 222 224 229 236 242 245 246 248 251 256 262 269 277 286 299 309 313 313 308 300 291 283 277 276 275 272 266 259 254 252 255 254 250 250 252 251 249 247
216 220 222 221 220 220 217 214 215 219 222 226 236 243 244 242 240 240 239 236 233 229 228 228 226 224 226 230 236 241 243 245 248 251 255 261 267 274 281 290 298 306 314 316 317 314 306 294 286 280 274 270 267 262 260 261 257 250 248 250 252 251 249
216 219 221 222 224 225 221 216 216 219 222 227 234 242 246 248 246 243 241 239 235 230 229 229 228 227 229 231 235 239 243 246 248 251 255 260 266 271 277 284 287 294 302 308 311 312 313 316 308 291 276 269 266 263 263 263 258 251 249 251 252 253 253
217 218 220 221 223 225 222 218 218 220 224 230 235 239 244 249 251 247 242 241 239 234 232 231 229 229 231 234 239 242 245 246 248 251 255 259 264 269 272 274 276 282 290 297 298 297 302 310 310 301 289 276 266 261 261 262 259 255 253 252 253 255 255
220 222 223 223 222 223 222 221 220 221 224 230 235 238 241 245 249 250 248 246 242 237 235 232 231 232 233 236 241 243 244 247 249 251 254 257 260 262 265 267 270 275 280 283 284 286 291 297 297 296 295 287 274 263 259 258 260 261 259 256 255 256 257
224 226 228 227 224 222 223 223 221 221 223 228 232 236 239 241 245 249 247 244 239 235 234 232 232 234 235 236 239 240 240 244 248 252 253 254 255 257 260 263 265 268 271 274 278 281 284 286 286 286 288 290 284 273 262 258 259 261 262 260 257 257 258
227 229 231 231 228 224 223 224 223 221 221 224 228 232 236 240 244 247 247 246 240 236 234 233 233 235 237 237 238 239 240 243 247 251 253 253 254 255 256 259 262 264 266 270 273 276 277 277 279 280 282 285 284 278 270 261 258 258 261 261 259 258 258
231 231 233 234 233 228 224 224 225 223 220 221 224 227 232 238 242 246 250 251 246 241 238 236 236 238 239 239 240 240 241 242 242 245 249 252 253 253 253 255 257 259 262 264 268 271 272 271 273 276 278 278 277 276 273 265 257 253 255 258 257 256 257
236 235 235 235 235 232 228 224 225 224 222 223 224 223 226 233 241 246 250 251 250 247 246 249 251 249 246 246 247 244 241 240 240 239 243 249 251 252 252 253 253 255 257 259 262 265 267 267 268 269 270 271 271 271 270 267 260 254 253 254 255 255 256
238 239 239 238 236 234 231 228 226 225 224 226 228 223 222 228 237 243 246 248 249 249 251 257 258 255 255 258 255 248 243 241 240 237 237 243 247 248 250 250 251 251 252 252 253 254 257 259 259 260 261 264 267 268 268 267 264 260 255 254 255 255 255
239 241 243 243 240 236 233 231 229 227 226 229 231 228 222 224 233 240 243 246 248 251 253 255 253 253 258 258 251 249 249 247 243 238 235 238 242 245 248 250 251 253 255 259 261 262 262 260 259 258 257 256 259 262 263 265 267 265 262 259 257 257 256
237 239 241 243 241 237 235 234 232 230 229 231 234 234 229 225 230 237 243 246 249 251 252 251 248 250 254 251 249 253 257 256 250 244 241 241 241 242 246 250 256 261 265 269 273 274 274 272 270 268 266 263 259 256 255 258 262 265 266 264 261 259 258
235 236 238 240 239 237 236 236 236 233 231 231 233 236 236 234 234 237 241 246 248 248 249 250 250 253 254 254 254 257 259 260 257 252 252 256 255 253 255 260 267 271 273 275 277 278 278 277 276 278 279 277 273 265 259 256 257 259 262 265 264 262 261
234 235 237 238 238 237 237 239 240 238 235 234 234 236 238 239 240 241 242 245 248 249 250 252 253 254 256 256 256 258 262 264 263 261 265 270 272 273 274 276 277 278 278 278 279 280 280 278 277 279 280 278 276 273 267 261 258 256 257 259 262 264 263
237 236 236 237 239 239 240 241 242 242 240 237 236 237 239 240 242 243 244 246 248 250 250 250 249 250 253 255 257 261 267 270 271 271 273 274 275 277 277 277 278 280 280 279 279 278 278 277 276 278 278 276 273 271 267 264 263 261 256 253 256 261 262
240 239 238 238 239 242 243 243 242 242 241 239 238 238 240 242 243 244 245 246 247 248 248 248 249 251 254 258 260 263 266 269 270 271 272 272 272 272 273 275 277 278 278 278 278 277 276 276 276 277 278 277 275 271 270 269 268 265 259 251 250 254 258
241 242 241 240 240 242 244 244 242 239 239 239 239 238 239 241 243 245 246 246 246 246 247 248 250 253 256 259 262 263 263 264 264 265 267 269 270 270 271 271 271 272 273 275 275 276 276 276 277 277 278 278 278 276 276 275 272 269 264 257 251 250 252
240 241 242 242 241 240 242 244 243 239 237 238 238 238 239 240 242 243 245 246 246 247 249 250 252 255 257 260 262 263 263 263 263 263 263 265 267 268 268 267 267 267 269 270 271 273 274 274 276 276 277 279 280 280 279 276 273 270 269 266 261 255 251
239 240 241 241 239 238 239 242 243 241 239 238 238 238 239 241 242 243 245 246 248 250 252 254 255 257 259 261 262 264 265 265 265 264 263 263 264 265 266 267 267 267 267 269 271 272 273 273 273 274 276 277 278 277 275 274 273 269 267 268 269 266 261
240 240 240 239 238 237 237 239 241 242 242 242 241 241 241 241 243 244 246 247 249 251 253 255 257 259 260 262 263 264 264 264 264 263 263 264 265 266 267 268 269 270 270 271 271 272 273 273 271 271 272 272 272 270 269 269 270 268 266 265 267 268 267
242 240 240 239 239 239 239 238 239 241 243 245 246 246 246 246 245 246 247 248 250 252 254 256 258 259 260 261 262 262 262 262 263 264 265 266 267 269 270 270 271 272 272 272 271 271 271 271 270 270 269 268 267 266 266 267 269 269 267 263 261 262 263
243 242 242 241 241 242 241 240 240 242 244 246 247 249 250 251 250 249 248 249 250 252 254 255 257 258 259 259 260 261 262 263 264 265 266 267 267 268 269 270 270 270 271 271 270 270 270 269 269 269 268 266 265 263 263 266 268 267 264 260 257 257 258
244 243 243 244 244 245 244 243 244 247 248 247 247 248 250 252 253 253 252 252 253 253 254 256 257 258 259 260 261 262 263 264 265 267 268 268 268 268 268 269 269 269 269 269 269 268 269 269 269 269 268 267 266 264 263 263 263 263 263 263 260 258 257
243 243 243 244 245 246 246 247 250 252 251 249 248 249 251 253 255 256 257 258 259 259 259 260 260 261 262 263 263 264 265 266 267 269 270 271 271 271 271 271 271 270 269 270 269 268 268 268 269 269 268 268 268 267 265 263 261 261 261 262 261 260 259